Flag for U.S.A. Weather past 2 weeks in Jackson, Mississippi, U.S.A.

Now
48 °F

Clear.


Feels Like: 48 °F
Forecast: 51 / 81 °F
Wind: No wind

Location: Hawkins Field

Current Time: Oct 25, 2014 at 8:07:41 AM

Latest Report: Oct 25, 2014 at 6:53 AM


Visibility: 10 mi

Pressure: 30.12 "Hg

Humidity: 93%

Dew point: 46 °F

Location of JacksonLocation

Historic Weather in Jackson — Graph

°F

Jackson temperature yesterday

Maximum temperature yesterday: 75 °F (at 3:53 PM)
Minimum temperature yesterday: 46 °F (at 5:53 AM)
Average temperature yesterday: 58 °F

Past Weeks' High & Low Weather Summary

 TemperatureHumidityPressure
High89 °F (Oct 10, 1:53 PM)94% (Oct 13, 3:56 PM)30.17 "Hg (Oct 13, 3:56 PM)
Low44 °F (Oct 23, 6:53 AM)26% (Oct 16, 3:53 PM)29.69 "Hg (Oct 13, 1:53 PM)
Average66 °F68%29.99 "Hg
* Reported Oct 10 6:53 AM — Oct 25 6:53 AM, Jackson, Weather by CustomWeather, © 2014

Note: Actual official high and low records may vary slightly from our data, if they occured in-between our weather recording intervals... More about our weather records

Advertising

Jackson weather history for previous 24 hours

 ConditionsComfort  
Time TempWeatherWind HumidityBarometerVisibility
6:53 AM
Oct 25
48 °FClear.No wind93%30.12 "Hg10 mi
5:53 AM49 °FClear.No wind90%30.12 "Hg10 mi
4:53 AM49 °FClear.No wind90%30.10 "Hg10 mi
3:53 AM50 °FClear.No wind89%30.09 "Hg10 mi
2:53 AM50 °FClear.No wind89%30.09 "Hg10 mi
1:53 AM51 °FClear.No wind86%30.10 "Hg10 mi
12:53 AM52 °FClear.3 mph80%30.10 "Hg10 mi
11:53 PM
Oct 24
52 °FClear.No wind83%30.11 "Hg10 mi
10:53 PM52 °FClear.No wind83%30.11 "Hg10 mi
9:53 PM54 °FClear.No wind80%30.10 "Hg10 mi
8:53 PM56 °FClear.No wind75%30.10 "Hg10 mi
7:53 PM59 °FClear.No wind67%30.09 "Hg10 mi
6:53 PM65 °FSunny.No wind52%30.08 "Hg7 mi
5:53 PM69 °FSunny.6 mph42%30.07 "Hg10 mi
4:53 PM73 °FSunny.7 mph37%30.07 "Hg10 mi
3:53 PM75 °FSunny.6 mph32%30.07 "Hg10 mi
2:53 PM74 °FSunny.7 mph31%30.06 "Hg10 mi
1:53 PM73 °FSunny.7 mph32%30.07 "Hg10 mi
12:53 PM71 °FSunny.No wind35%30.10 "Hg10 mi
11:53 AM68 °FSunny.8 mph40%30.12 "Hg10 mi
10:53 AM66 °FSunny.7 mph52%30.14 "Hg10 mi
9:53 AM61 °FSunny.3 mph65%30.14 "Hg10 mi
8:53 AM53 °FSunny.3 mph89%30.14 "Hg10 mi
Weather by CustomWeather, © 2014

See weather overviewHow to use our weather pages